Change the Weather History Date:

Wednesday, February 19, 2014

  Actual Average (KCFV) Record (KCFV)
Temperature  
Mean Temperature 48 °F -  
Max Temperature 64 °F 49 °F 75 °F (2011)
Min Temperature 33 °F 30 °F 17 °F (2006)
Degree Days  
Heating Degree Days 16    
Moisture  
Dew Point 36 °F    
Average Humidity 63    
Maximum Humidity 94    
Minimum Humidity 25    
Precipitation  
Precipitation 0.00 in - - ()
Sea Level Pressure  
Sea Level Pressure 29.83 in    
Wind  
Wind Speed 9 mph (ESE)    
Max Wind Speed 21 mph    
Max Gust Speed 29 mph    
Visibility 10 miles    
Events Rain    
Averages and records for this station are not official NWS values.
T = Trace of Precipitation, MM = Missing Value Source: NWS Daily Summary

Daily Weather History Graph

Daily Weather History Graph

Search for Another Location

Airport or City:

Trip Planner

Search our weather history database for the weather conditions in past years. The results will help you decide how hot, cold, wet, or windy it might be!

Date:

Astronomy

Feb. 19, 2014 Rise Set
Actual Time 7:07 AM CST 6:07 PM CST
Civil Twilight 6:40 AM CST 6:33 PM CST
Nautical Twilight 6:10 AM CST 7:04 PM CST
Astronomical Twilight 5:40 AM CST 7:34 PM CST
Moon 10:54 PM CST (2/19) 9:20 AM CST (2/19)
Length of Visible Light 11h 53m
Length of Day
11h 00m
Waning Gibbous, 79% of the Moon is Illuminated
Feb 19
Waning Gibbous
Feb 22
Last Quarter
Mar 1
New
Mar 8
First Quarter
Mar 16
Full

Hourly Weather History & Observations

Time (CST) Temp. Windchill Dew Point Humidity Pressure Visibility Wind Dir Wind Speed Gust Speed Precip Events Conditions
12:15 AM 46.4 °F 42.4 °F 28.4 °F 50% 29.99 in 10.0 mi NNE 8.1 mph - N/A   Clear
12:35 AM 44.6 °F 39.2 °F 28.4 °F 53% 29.99 in 10.0 mi NNE 10.4 mph - N/A   Clear
12:55 AM 42.8 °F 38.6 °F 28.4 °F 57% 29.99 in 10.0 mi NE 6.9 mph - N/A   Clear
1:15 AM 44.6 °F 41.4 °F 28.4 °F 53% 29.99 in 10.0 mi NNE 5.8 mph - N/A   Clear
1:35 AM 42.8 °F 40.1 °F 28.4 °F 57% 29.99 in 10.0 mi NE 4.6 mph - N/A   Clear
1:55 AM 42.8 °F 41.1 °F 28.4 °F 57% 29.98 in 10.0 mi NE 3.5 mph - N/A   Clear
2:15 AM 41.0 °F 39.0 °F 28.4 °F 61% 29.98 in 10.0 mi NE 3.5 mph - N/A   Clear
2:35 AM 37.4 °F 32.8 °F 28.4 °F 70% 29.97 in 10.0 mi NNE 5.8 mph - N/A   Clear
2:55 AM 39.2 °F - 28.4 °F 65% 29.97 in 10.0 mi Calm Calm - N/A   Clear
3:15 AM 37.4 °F - 28.4 °F 70% 29.98 in 10.0 mi Calm Calm - N/A   Clear
3:35 AM 35.6 °F 31.7 °F 28.4 °F 75% 29.99 in 10.0 mi WNW 4.6 mph - N/A   Clear
3:55 AM 35.6 °F 31.7 °F 28.4 °F 75% 29.98 in 10.0 mi WNW 4.6 mph - N/A   Clear
4:15 AM 33.8 °F 29.6 °F 28.4 °F 81% 29.99 in 10.0 mi WNW 4.6 mph - N/A   Clear
4:35 AM 33.8 °F 29.6 °F 28.4 °F 81% 30.00 in 10.0 mi WNW 4.6 mph - N/A   Clear
4:55 AM 35.6 °F 31.7 °F 28.4 °F 75% 29.99 in 10.0 mi NNW 4.6 mph - N/A   Clear
5:15 AM 35.6 °F 32.8 °F 30.2 °F 81% 30.01 in 10.0 mi NNW 3.5 mph - N/A   Clear
5:35 AM 35.6 °F - 30.2 °F 81% 30.01 in 10.0 mi Calm Calm - N/A   Clear
5:55 AM 35.6 °F - 30.2 °F 81% 30.00 in 10.0 mi Calm Calm - N/A   Clear
6:15 AM 35.6 °F - 30.2 °F 81% 30.00 in 10.0 mi Calm Calm - N/A   Clear
6:35 AM 35.6 °F 31.7 °F 30.2 °F 81% 29.99 in 10.0 mi NE 4.6 mph - N/A   Clear
6:55 AM 33.8 °F 27.7 °F 30.2 °F 87% 29.99 in 10.0 mi NE 6.9 mph - N/A   Clear
7:15 AM 33.8 °F 28.6 °F 30.2 °F 87% 30.00 in 10.0 mi NE 5.8 mph - N/A   Clear
7:35 AM 33.8 °F 27.7 °F 30.2 °F 87% 29.99 in 10.0 mi NE 6.9 mph - N/A   Clear
7:55 AM 35.6 °F 31.7 °F 30.2 °F 81% 29.99 in 10.0 mi NNE 4.6 mph - N/A   Clear
8:15 AM 35.6 °F - 32.0 °F 87% 30.00 in 10.0 mi Calm Calm - N/A   Clear
8:35 AM 39.2 °F 35.0 °F 32.0 °F 75% 30.00 in 10.0 mi NNE 5.8 mph - N/A   Clear
8:55 AM 39.2 °F 33.6 °F 32.0 °F 75% 30.00 in 10.0 mi NNE 8.1 mph - N/A   Clear
9:15 AM 41.0 °F 38.0 °F 32.0 °F 70% 29.99 in 10.0 mi NE 4.6 mph - N/A   Clear
9:35 AM 44.6 °F 41.4 °F 32.0 °F 61% 29.97 in 10.0 mi East 5.8 mph - N/A   Clear
9:55 AM 48.2 °F - 32.0 °F 54% 29.96 in 10.0 mi East 8.1 mph - N/A   Clear
10:15 AM 50.0 °F - 32.0 °F 50% 29.96 in 10.0 mi East 8.1 mph - N/A   Clear
10:35 AM 51.8 °F - 32.0 °F 47% 29.94 in 10.0 mi East 15.0 mph 18.4 mph N/A   Clear
10:55 AM 51.8 °F - 30.2 °F 44% 29.93 in 10.0 mi East 12.7 mph - N/A   Clear
11:15 AM 53.6 °F - 28.4 °F 38% 29.91 in 10.0 mi East 15.0 mph - N/A   Clear
11:35 AM 55.4 °F - 24.8 °F 31% 29.91 in 10.0 mi East 17.3 mph - N/A   Clear
11:55 AM 57.2 °F - 24.8 °F 29% 29.91 in 10.0 mi East 13.8 mph - N/A   Scattered Clouds
12:15 PM 59.0 °F - 24.8 °F 27% 29.89 in 10.0 mi ESE 13.8 mph - N/A   Scattered Clouds
12:35 PM 59.0 °F - 24.8 °F 27% 29.87 in 10.0 mi ESE 12.7 mph - N/A   Scattered Clouds
12:55 PM 59.0 °F - 23.0 °F 25% 29.85 in 10.0 mi ESE 15.0 mph 18.4 mph N/A   Scattered Clouds
1:15 PM 53.6 °F - 32.0 °F 44% 29.83 in 10.0 mi ESE 15.0 mph 21.9 mph N/A Rain Light Rain
1:35 PM 57.2 °F - 30.2 °F 36% 29.81 in 10.0 mi ESE 12.7 mph - N/A   Scattered Clouds
1:55 PM 59.0 °F - 28.4 °F 31% 29.78 in 10.0 mi ESE 13.8 mph 19.6 mph N/A   Mostly Cloudy
2:15 PM 60.8 °F - 30.2 °F 31% 29.76 in 10.0 mi ESE 16.1 mph 20.7 mph N/A   Mostly Cloudy
2:35 PM 60.8 °F - 26.6 °F 27% 29.74 in 10.0 mi ESE 13.8 mph - N/A   Mostly Cloudy
2:55 PM 62.6 °F - 26.6 °F 26% 29.72 in 10.0 mi ESE 18.4 mph - N/A   Scattered Clouds
3:15 PM 62.6 °F - 26.6 °F 26% 29.71 in 10.0 mi ESE 19.6 mph 25.3 mph N/A   Scattered Clouds
3:35 PM 62.6 °F - 26.6 °F 26% 29.70 in 10.0 mi SE 17.3 mph - N/A   Scattered Clouds
3:55 PM 64.4 °F - 28.4 °F 26% 29.69 in 10.0 mi SE 13.8 mph - N/A   Overcast
4:15 PM 64.4 °F - 30.2 °F 28% 29.67 in 10.0 mi SE 12.7 mph - N/A   Overcast
4:35 PM 64.4 °F - 32.0 °F 30% 29.66 in 10.0 mi ESE 6.9 mph - N/A   Overcast
4:55 PM 64.4 °F - 46.4 °F 52% 29.66 in 10.0 mi SSE 9.2 mph - N/A   Overcast
5:15 PM 64.4 °F - 50.0 °F 59% 29.66 in 10.0 mi South 11.5 mph - N/A   Overcast
5:35 PM 64.4 °F - 51.8 °F 64% 29.65 in 10.0 mi South 15.0 mph 24.2 mph N/A   Overcast
5:55 PM 62.6 °F - 53.6 °F 72% 29.66 in 10.0 mi South 18.4 mph 27.6 mph N/A   Overcast
6:15 PM 60.8 °F - 53.6 °F 77% 29.65 in 7.0 mi South 18.4 mph 27.6 mph N/A   Overcast
6:35 PM 60.8 °F - 53.6 °F 77% 29.63 in 10.0 mi SSE 16.1 mph 24.2 mph N/A   Overcast
6:55 PM 60.8 °F - 51.8 °F 72% 29.62 in 10.0 mi SSE 20.7 mph 27.6 mph N/A   Overcast
7:15 PM 60.8 °F - 51.8 °F 72% 29.62 in 10.0 mi SSE 15.0 mph 23.0 mph N/A   Overcast
7:35 PM 60.8 °F - 51.8 °F 72% 29.61 in 10.0 mi SSE 15.0 mph 28.8 mph N/A   Overcast
7:55 PM 59.0 °F - 51.8 °F 77% 29.61 in 10.0 mi South 15.0 mph - N/A   Overcast
8:15 PM 59.0 °F - 51.8 °F 77% 29.60 in 10.0 mi SSE 16.1 mph 21.9 mph N/A   Overcast
8:35 PM 59.0 °F - 51.8 °F 77% 29.60 in 10.0 mi South 20.7 mph 27.6 mph N/A   Overcast
8:55 PM 59.0 °F - 53.6 °F 82% 29.60 in 10.0 mi South 18.4 mph 23.0 mph N/A   Overcast
9:15 PM 57.2 °F - 53.6 °F 88% 29.59 in 10.0 mi South 17.3 mph - N/A   Overcast
9:35 PM 59.0 °F - 55.4 °F 88% 29.58 in 7.0 mi South 17.3 mph 24.2 mph N/A   Overcast
9:55 PM 59.0 °F - 55.4 °F 88% 29.58 in 7.0 mi South 13.8 mph - N/A   Overcast
10:35 PM 59.0 °F - 55.4 °F 88% 29.58 in 5.0 mi South 11.5 mph - N/A   Overcast
10:55 PM 59.0 °F - 55.4 °F 88% 29.57 in 5.0 mi SSE 13.8 mph 18.4 mph N/A   Overcast
11:15 PM 59.0 °F - 55.4 °F 88% 29.56 in 5.0 mi South 13.8 mph - N/A   Overcast
11:35 PM 59.0 °F - 57.2 °F 94% 29.55 in 5.0 mi South 12.7 mph 21.9 mph N/A   Overcast
11:55 PM 59.0 °F - 57.2 °F 94% 29.54 in 5.0 mi South 11.5 mph - N/A   Overcast